Regional Weather Roundup
Issued by NWS

Home | Current Version | Previous Version | Text Only | Print | Product List | Glossary On
Versions: 1 2 3 4 5 6 7 8 9 10 11 12 13 14 15 16 17 18 19 20 21 22 23 24 25 26 27 28 29 30 31 32 33 34 35 36 37 38 39 40 41 42 43 44 45 46 47 48 49 50
000
ASUS43 KLMK 282210
RWRKY
KENTUCKY REGIONAL WEATHER ROUNDUP
NATIONAL WEATHER SERVICE LOUISVILLE KY
600 PM EDT WED SEP 28 2016

NOTE "FAIR" INDICATES FEW OR NO CLOUDS BELOW 12,000 FEET
WITH NO SIGNIFICANT WEATHER AND/OR OBSTRUCTIONS TO VISIBILITY.

KYZ001>023-026-027-061>063-070>075-282300-
WESTERN AND SOUTH CENTRAL KENTUCKY

CITY           SKY/WX    TMP DP  RH WIND       PRES   REMARKS
PADUCAH        MOSUNNY   71  46  40 N15G23    29.96R
HENDERSON      PTSUNNY   68  45  42 NW17G23   29.94R
OWENSBORO      MOSUNNY  N/A N/A N/A NW9G17    29.92R
HOPKINSVILLE   CLOUDY    70  51  49 NW13G21   29.91R
BOWLING GREEN  CLOUDY    63  60  90 W5        29.91R
GLASGOW        HVY RAIN  60  60 100 CALM      29.92R
$$

KYZ024-025-028>034-038-045-046-053-282300-
NORTH CENTRAL KENTUCKY

CITY           SKY/WX    TMP DP  RH WIND       PRES   REMARKS
LOUISVILLE/SDF MOSUNNY   67  56  67 W9        29.88R
LOUISVILLE/LOU MOSUNNY   66  56  70 W10       29.89R
FORT KNOX      MOSUNNY   65  56  70 W13       29.88R
$$

KYZ035>037-039>044-047>052-055>060-089>105-282300-
NORTHEAST KENTUCKY

CITY           SKY/WX    TMP DP  RH WIND       PRES   REMARKS
LEXINGTON      RAIN      58  55  90 S7        29.91R FOG
COVINGTON      CLOUDY    60  56  86 S3        29.88R
FRANKFORT      PTSUNNY   61  57  87 SW6       29.89R
$$

KYZ054-064>069-076>088-106>120-282300-
SOUTHEAST KENTUCKY

CITY           SKY/WX    TMP DP  RH WIND       PRES   REMARKS
JACKSON        CLOUDY    74  48  39 VRB3      29.85S
LONDON         CLOUDY    78  41  26 SW12      29.85R
SOMERSET       CLOUDY    66  50  55 N13G26    29.90R
MIDDLESBORO    SUNNY     78  48  34 S7        29.88S
MONTICELLO     CLOUDY    71  53  52 N21G32    29.90R
$$





USA.gov is the U.S. government's official web portal to all federal, state and local government web resources and services.